When you browse on this site, cookies collect data to enhance your experience and personalize the content and advertising you see.
Visit our Privacy Policy to learn more. By continuing to use the site, you agree to this use of cookies and data.
  • En España
  • Lista de países
  • Para 7 días
  • Temperatura del agua
  • El tiempo en el mapa
  • Informadores
  • user-avatar
    Iniciar sesión

    Tiempo cada hora Boa Vista

    Hoy, 22 Febrero, Sábado

    Tiempo Temperatura Precipitaciones Viento Presión Humedad
    00:00 +30°C° 0 mm 4 mps 752 mmHg 53%
    01:00 +29°C° 0 mm 4 mps 752 mmHg 56%
    02:00 +29°C° 0 mm 4 mps 752 mmHg 59%
    03:00 +28°C° 0 mm 4 mps 752 mmHg 61%
    04:00 +28°C° 0 mm 4 mps 752 mmHg 63%
    05:00 +27°C° 0 mm 5 mps 752 mmHg 65%
    06:00 +28°C° 0 mm 5 mps 752 mmHg 62%
    07:00 +29°C° 0 mm 5 mps 753 mmHg 60%
    08:00 +29°C° 0 mm 6 mps 754 mmHg 57%
    09:00 +33°C° 0 mm 6 mps 754 mmHg 50%
    10:00 +35°C° 0 mm 5 mps 754 mmHg 43%
    11:00 +37°C° 0 mm 5 mps 753 mmHg 36%
    12:00 +39°C° 0 mm 5 mps 752 mmHg 33%
    13:00 +40°C° 0 mm 4 mps 751 mmHg 30%
    14:00 +42°C° 0 mm 4 mps 750 mmHg 27%
    15:00 +42°C° 0 mm 4 mps 750 mmHg 27%
    16:00 +40°C° 0 mm 3 mps 749 mmHg 26%
    17:00 +40°C° 0 mm 3 mps 749 mmHg 26%
    18:00 +39°C° 0 mm 3 mps 749 mmHg 28%
    19:00 +37°C° 0 mm 3 mps 750 mmHg 31%
    20:00 +35°C° 0 mm 2 mps 751 mmHg 33%
    21:00 +34°C° 0 mm 3 mps 751 mmHg 36%
    22:00 +34°C° 0 mm 3 mps 751 mmHg 38%
    23:00 +33°C° 0 mm 4 mps 752 mmHg 40%

    Mañana, 23 Febrero, Domingo

    Tiempo Temperatura Precipitaciones Viento Presión Humedad
    00:00 +33°C° 0 mm 4 mps 752 mmHg 43%
    01:00 +32°C° 0 mm 4 mps 751 mmHg 46%
    02:00 +30°C° 0 mm 3 mps 751 mmHg 49%
    03:00 +30°C° 0 mm 4 mps 751 mmHg 52%
    04:00 +29°C° 0 mm 4 mps 751 mmHg 55%
    05:00 +29°C° 0 mm 4 mps 751 mmHg 58%
    06:00 +29°C° 0 mm 4 mps 752 mmHg 60%
    07:00 +30°C° 0 mm 5 mps 753 mmHg 61%
    08:00 +30°C° 0 mm 5 mps 754 mmHg 63%
    09:00 +33°C° 0 mm 5 mps 754 mmHg 57%
    10:00 +35°C° 0 mm 5 mps 753 mmHg 50%
    11:00 +37°C° 0 mm 4 mps 753 mmHg 44%
    12:00 +37°C° 0 mm 4 mps 752 mmHg 42%
    13:00 +38°C° 0 mm 3 mps 751 mmHg 40%
    14:00 +39°C° 0 mm 2 mps 750 mmHg 37%
    15:00 +39°C° 0 mm 2 mps 749 mmHg 36%
    16:00 +39°C° 0 mm 2 mps 749 mmHg 35%
    17:00 +39°C° 0 mm 2 mps 749 mmHg 34%
    18:00 +37°C° 0.2 mm 2 mps 749 mmHg 42%
    19:00 +35°C° 0.2 mm 3 mps 750 mmHg 51%
    20:00 +33°C° 0.2 mm 4 mps 751 mmHg 59%
    21:00 +31°C° 0.2 mm 3 mps 751 mmHg 62%
    22:00 +30°C° 0.2 mm 3 mps 752 mmHg 65%
    23:00 +30°C° 0.2 mm 2 mps 752 mmHg 69%

    Pasado mañana, 24 Febrero, Lunes

    Tiempo Temperatura Precipitaciones Viento Presión Humedad
    00:00 +29°C° 0.4 mm 3 mps 752 mmHg 71%
    01:00 +29°C° 0.4 mm 3 mps 752 mmHg 73%
    02:00 +28°C° 0.4 mm 3 mps 751 mmHg 75%
    03:00 +28°C° 0 mm 3 mps 751 mmHg 77%
    04:00 +28°C° 0 mm 4 mps 751 mmHg 79%
    05:00 +27°C° 0 mm 4 mps 751 mmHg 82%
    06:00 +28°C° 0 mm 4 mps 752 mmHg 78%
    07:00 +29°C° 0 mm 4 mps 753 mmHg 73%
    08:00 +29°C° 0 mm 5 mps 754 mmHg 69%
    09:00 +30°C° 0.1 mm 5 mps 754 mmHg 65%
    10:00 +33°C° 0.1 mm 5 mps 754 mmHg 61%
    11:00 +34°C° 0.1 mm 5 mps 754 mmHg 56%
    12:00 +35°C° 0 mm 4 mps 753 mmHg 51%
    13:00 +36°C° 0 mm 4 mps 752 mmHg 46%
    14:00 +38°C° 0 mm 4 mps 751 mmHg 41%
    15:00 +38°C° 0 mm 4 mps 750 mmHg 40%
    16:00 +38°C° 0 mm 4 mps 749 mmHg 39%
    17:00 +38°C° 0 mm 4 mps 749 mmHg 38%
    18:00 +37°C° 0 mm 4 mps 749 mmHg 41%
    19:00 +35°C° 0 mm 3 mps 750 mmHg 44%
    20:00 +34°C° 0 mm 3 mps 750 mmHg 47%
    21:00 +34°C° 0 mm 4 mps 751 mmHg 50%
    22:00 +33°C° 0 mm 4 mps 751 mmHg 52%
    23:00 +32°C° 0 mm 4 mps 752 mmHg 55%

    25 Febrero, Martes

    Tiempo Temperatura Precipitaciones Viento Presión Humedad
    00:00 +32°C° 0 mm 4 mps 752 mmHg 58%
    01:00 +30°C° 0 mm 5 mps 751 mmHg 61%
    02:00 +29°C° 0 mm 5 mps 751 mmHg 64%
    03:00 +29°C° 0 mm 5 mps 751 mmHg 66%
    04:00 +28°C° 0 mm 5 mps 751 mmHg 68%
    05:00 +28°C° 0 mm 5 mps 751 mmHg 70%
    06:00 +28°C° 0 mm 5 mps 752 mmHg 68%
    07:00 +29°C° 0 mm 6 mps 752 mmHg 66%
    08:00 +29°C° 0 mm 6 mps 753 mmHg 64%
    09:00 +32°C° 0 mm 6 mps 753 mmHg 58%
    10:00 +33°C° 0 mm 6 mps 753 mmHg 52%
    11:00 +35°C° 0 mm 6 mps 753 mmHg 46%
    12:00 +36°C° 0 mm 6 mps 752 mmHg 40%
    13:00 +39°C° 0 mm 5 mps 751 mmHg 35%
    14:00 +40°C° 0 mm 5 mps 750 mmHg 29%
    15:00 +40°C° 0 mm 5 mps 749 mmHg 28%
    16:00 +40°C° 0 mm 5 mps 749 mmHg 27%
    17:00 +40°C° 0 mm 6 mps 748 mmHg 26%
    18:00 +37°C° 0 mm 5 mps 749 mmHg 30%
    19:00 +36°C° 0 mm 5 mps 749 mmHg 33%
    20:00 +34°C° 0 mm 5 mps 750 mmHg 37%
    21:00 +33°C° 0 mm 5 mps 750 mmHg 41%
    22:00 +32°C° 0 mm 5 mps 751 mmHg 45%
    23:00 +32°C° 0 mm 6 mps 752 mmHg 48%

    26 Febrero, Miércoles

    Tiempo Temperatura Precipitaciones Viento Presión Humedad
    00:00 +30°C° 0 mm 6 mps 751 mmHg 51%
    01:00 +29°C° 0 mm 6 mps 751 mmHg 54%
    02:00 +29°C° 0 mm 5 mps 751 mmHg 56%
    03:00 +28°C° 0 mm 5 mps 751 mmHg 58%
    04:00 +27°C° 0 mm 5 mps 751 mmHg 61%
    05:00 +26°C° 0 mm 5 mps 751 mmHg 63%
    06:00 +27°C° 0 mm 5 mps 752 mmHg 61%
    07:00 +27°C° 0 mm 6 mps 752 mmHg 59%
    08:00 +28°C° 0 mm 6 mps 753 mmHg 57%
    09:00 +30°C° 0 mm 6 mps 753 mmHg 50%
    10:00 +33°C° 0 mm 6 mps 754 mmHg 43%
    11:00 +35°C° 0 mm 6 mps 754 mmHg 37%
    12:00 +38°C° 0 mm 6 mps 753 mmHg 34%
    13:00 +39°C° 0 mm 5 mps 752 mmHg 30%
    14:00 +40°C° 0 mm 5 mps 751 mmHg 27%
    15:00 +40°C° 0 mm 5 mps 750 mmHg 27%
    16:00 +40°C° 0 mm 4 mps 749 mmHg 26%
    17:00 +38°C° 0 mm 4 mps 749 mmHg 26%
    18:00 +37°C° 0 mm 3 mps 749 mmHg 29%
    19:00 +35°C° 0 mm 3 mps 749 mmHg 32%
    20:00 +32°C° 0 mm 2 mps 750 mmHg 35%
    21:00 +31°C° 0 mm 3 mps 750 mmHg 39%
    22:00 +32°C° 0 mm 5 mps 751 mmHg 43%
    23:00 +30°C° 0 mm 6 mps 751 mmHg 46%

    27 Febrero, Jueves

    Tiempo Temperatura Precipitaciones Viento Presión Humedad
    00:00 +30°C° 0 mm 6 mps 751 mmHg 50%
    01:00 +29°C° 0 mm 6 mps 751 mmHg 53%
    02:00 +28°C° 0 mm 5 mps 750 mmHg 57%
    03:00 +28°C° 0 mm 6 mps 750 mmHg 59%
    04:00 +27°C° 0 mm 6 mps 750 mmHg 62%
    05:00 +27°C° 0 mm 6 mps 750 mmHg 64%
    06:00 +27°C° 0 mm 6 mps 751 mmHg 61%
    07:00 +28°C° 0 mm 6 mps 752 mmHg 58%
    08:00 +28°C° 0 mm 6 mps 753 mmHg 54%
    09:00 +30°C° 0 mm 6 mps 753 mmHg 48%
    10:00 +34°C° 0 mm 5 mps 753 mmHg 42%
    11:00 +36°C° 0 mm 5 mps 753 mmHg 36%
    12:00 +37°C° 0 mm 4 mps 752 mmHg 33%
    13:00 +38°C° 0 mm 4 mps 751 mmHg 30%
    14:00 +40°C° 0 mm 3 mps 750 mmHg 27%
    15:00 +40°C° 0 mm 3 mps 749 mmHg 26%
    16:00 +40°C° 0 mm 3 mps 748 mmHg 25%
    17:00 +40°C° 0 mm 2 mps 748 mmHg 25%
    18:00 +38°C° 0 mm 2 mps 748 mmHg 28%
    19:00 +36°C° 0 mm 2 mps 749 mmHg 32%
    20:00 +34°C° 0 mm 2 mps 749 mmHg 36%
    21:00 +33°C° 0 mm 3 mps 750 mmHg 39%
    22:00 +33°C° 0 mm 5 mps 751 mmHg 42%
    23:00 +32°C° 0 mm 6 mps 752 mmHg 44%
    Mostrar más